Overview Statistics Trail Chart Weather Telemetry Raw packets
 

This is the latest recevied weather packets stored in our database for station/object SQ9SMC-13. If no packets are shown the sender has not sent any weather packets the latest 10 day(s).

<< 45 46 47 48 49 50 51 >>
Time Temp. Humidity Pressure Rain* Wind** Luminosity Snow
1777390504 12.22° C 30% 1024.9 hPa 0 mm - 178 W/m² -
1777390204 12.78° C 29% 1025.1 hPa 0 mm - 189 W/m² -
1777389903 11.67° C 29% 1025.1 hPa 0 mm - 200 W/m² -
1777389604 12.22° C 28% 1025.1 hPa 0 mm - 213 W/m² -
1777389303 12.22° C 28% 1025.2 hPa 0 mm - 226 W/m² -
1777389004 12.22° C 27% 1025 hPa 0 mm - 240 W/m² -
1777388703 12.78° C 28% 1025.2 hPa 0 mm - 253 W/m² -
1777388404 13.33° C 27% 1025.1 hPa 0 mm - 266 W/m² -
1777388103 12.78° C 28% 1025.2 hPa 0 mm - 276 W/m² -
1777387805 13.33° C 28% 1025.2 hPa 0 mm - 290 W/m² -
1777387503 12.78° C 28% 1025.1 hPa 0 mm - 302 W/m² -
1777387202 12.78° C 29% 1025.1 hPa 0 mm - 316 W/m² -
1777386903 12.78° C 29% 1025 hPa 0 mm - 328 W/m² -
1777386603 12.78° C 28% 1025.3 hPa 0 mm - 339 W/m² -
1777386303 12.78° C 28% 1024.9 hPa 0 mm - 351 W/m² -
1777386003 13.33° C 28% 1025.3 hPa 0 mm - 363 W/m² -
1777385703 12.78° C 28% 1025.2 hPa 0 mm - 373 W/m² -
1777385403 12.22° C 29% 1025.4 hPa 0 mm - 384 W/m² -
1777385103 12.22° C 27% 1025.4 hPa 0 mm - 395 W/m² -
1777384803 13.33° C 26% 1025.4 hPa 0 mm - 406 W/m² -
1777384505 13.33° C 27% 1025.5 hPa 0 mm - 419 W/m² -
1777384206 13.33° C 26% 1025.4 hPa 0 mm - 429 W/m² -
1777383904 12.78° C 27% 1025.4 hPa 0 mm - 441 W/m² -
1777383602 12.78° C 25% 1025.5 hPa 0 mm - 453 W/m² -
1777383303 13.33° C 25% 1025.4 hPa 0 mm - 463 W/m² -

* Rain latest hour (hover to see other rain measurements)
** Current wind speed in m/s (hover to see current wind gust speed)